Flag Weather past 2 weeks in Almaty, Kazakhstan

Now
19 °F

Scattered clouds.


Feels Like: 11 °F
Forecast: 21 / 42 °F
Wind: 6 mph from Southwest

Location: Almaty Airport

Current Time: Nov 29, 2014 at 2:42:53 PM

Latest Report: Nov 29, 2014 at 2:00 PM


Visibility: 2 mi

Pressure: 30.33 "Hg

Humidity: 68%

Dew point: 10 °F

Location of AlmatyLocation

Historic Weather in Almaty — Graph

°F

Almaty temperature yesterday

Maximum temperature yesterday: 23 °F (at 12:00 PM)
Minimum temperature yesterday: 12 °F (at 4:30 AM)
Average temperature yesterday: 17 °F

Past Weeks' High & Low Weather Summary

 TemperatureHumidityPressure
High52 °F (Nov 17, 3:00 PM)100% (Nov 23, 2:00 PM)30.60 "Hg (Nov 23, 2:00 PM)
Low3 °F (Nov 29, 5:00 AM)29% (Nov 15, 3:00 PM)29.68 "Hg (Nov 24, 6:30 AM)
Average29 °F78%30.27 "Hg
* Reported Nov 14 1:00 PM — Nov 29 1:30 PM, Almaty, Weather by CustomWeather, © 2014

Note: Actual official high and low records may vary slightly from our data, if they occured in-between our weather recording intervals... More about our weather records

Advertising

Almaty weather history for previous 24 hours

 ConditionsComfort  
Time TempWeatherWind HumidityBarometerVisibility
1:30 PM
Nov 29
18 °FScattered clouds.6 mph73%30.33 "Hg2 mi
1:00 PM16 °FIce fog.3 mph73%30.36 "Hg3 mi
12:30 PM14 °FIce fog.1 mph85%30.36 "Hg2 mi
12:00 PM14 °FIce fog.No wind85%30.39 "Hg2 mi
11:30 AM12 °FIce fog.No wind85%30.39 "Hg2 mi
11:00 AM10 °FIce fog.No wind85%30.42 "Hg2 mi
10:30 AM10 °FIce fog.1 mph85%30.45 "Hg1 mi
10:00 AM9 °FIce fog.1 mph85%30.45 "Hg1 mi
9:30 AM7 °FIce fog.1 mph85%30.45 "Hg1 mi
9:00 AM7 °FIce fog.No wind85%30.48 "Hg0 mi
8:30 AM7 °FLight snow. Ice fog.No wind85%30.48 "Hg0 mi
8:00 AM7 °FIce fog.No wind85%30.51 "Hg0 mi
7:30 AM5 °FIce fog.3 mph85%30.51 "Hg0 mi
7:00 AM3 °FIce fog.1 mph78%30.48 "Hg1 mi
6:30 AM3 °FIce fog.1 mph85%30.48 "Hg1 mi
6:00 AM5 °FIce fog.No wind78%30.51 "Hg1 mi
5:30 AM3 °FIce fog.1 mph85%30.51 "Hg1 mi
5:00 AM3 °FIce fog.3 mph85%30.51 "Hg1 mi
4:30 AM5 °FIce fog.1 mph78%30.54 "Hg1 mi
4:00 AM5 °FIce fog.1 mph85%30.54 "Hg1 mi
3:30 AM5 °FIce fog.1 mph78%30.54 "Hg1 mi
3:00 AM7 °FIce fog.3 mph85%30.57 "Hg1 mi
2:30 AM7 °FIce fog.No wind85%30.57 "Hg1 mi
2:00 AM7 °FIce fog.3 mph85%30.57 "Hg1 mi
1:30 AM10 °FIce fog.1 mph79%30.57 "Hg3 mi
1:00 AM12 °FPartly cloudy.No wind85%30.57 "HgN/A
12:30 AM12 °FPartly cloudy.No wind85%30.57 "HgN/A
12:00 AM14 °FMostly cloudy.No wind79%30.60 "HgN/A
11:30 PM
Nov 28
14 °FMostly cloudy.3 mph79%30.60 "HgN/A
11:00 PM16 °FMostly cloudy.3 mph73%30.60 "HgN/A
10:30 PM16 °FMostly cloudy.3 mph73%30.60 "HgN/A
10:00 PM16 °FMostly cloudy.1 mph73%30.60 "HgN/A
9:30 PM16 °FMostly cloudy.3 mph73%30.60 "HgN/A
9:00 PM16 °FMostly cloudy.1 mph73%30.60 "HgN/A
8:30 PM16 °FMostly cloudy.1 mph73%30.57 "HgN/A
8:00 PM16 °FMostly cloudy.3 mph73%30.57 "HgN/A
7:30 PM16 °FMostly cloudy.1 mph73%30.57 "HgN/A
7:00 PM16 °FMostly cloudy.6 mph73%30.54 "HgN/A
6:30 PM16 °FMostly cloudy.3 mph67%30.54 "HgN/A
6:00 PM18 °FMostly cloudy.3 mph68%30.54 "HgN/A
5:30 PM18 °FPassing clouds.6 mph68%30.51 "HgN/A
5:00 PM18 °FPassing clouds.6 mph58%30.51 "HgN/A
4:30 PM21 °FPassing clouds.1 mph58%30.51 "HgN/A
4:00 PM21 °FPartly sunny.1 mph38%30.48 "HgN/A
3:30 PM21 °FBroken clouds.1 mph42%30.48 "HgN/A
3:00 PM21 °FPartly sunny.1 mph42%30.48 "HgN/A
2:30 PM21 °FOvercast.3 mph45%30.45 "HgN/A
2:00 PM21 °FOvercast.3 mph35%30.45 "HgN/A
Weather by CustomWeather, © 2014

See weather overviewHow to use our weather pages